| time (UTC) | temp F | wind direction | speed knots | gust knots | rain 1hr in | rain 24hr in | rain mn in | humidity % | barometer mb |
| 20260508180038 | 60 | 233 | 0.0 | 6.1 | 0.00 | 0.00 | 0.00 | 32 | 1012.0 |
| 20260508174539 | 59 | 259 | 0.0 | 4.3 | 0.00 | 0.00 | 0.00 | 33 | 1011.9 |
| 20260508173037 | 59 | 286 | 0.0 | 5.2 | 0.00 | 0.00 | 0.00 | 33 | 1011.9 |
| 20260508171538 | 58 | 289 | 0.0 | 6.1 | 0.00 | 0.00 | 0.00 | 33 | 1012.1 |
| 20260508170037 | 59 | 23 | 0.0 | 4.3 | 0.00 | 0.00 | 0.00 | 31 | 1012.0 |
| 20260508164536 | 59 | 278 | 0.0 | 7.8 | 0.00 | 0.00 | 0.00 | 33 | 1012.0 |
| 20260508163038 | 58 | 290 | 0.0 | 7.0 | 0.00 | 0.00 | 0.00 | 33 | 1012.0 |
| 20260508161535 | 59 | 269 | 0.0 | 2.6 | 0.00 | 0.00 | 0.00 | 32 | 1012.1 |
| 20260508160032 | 59 | 31 | 0.0 | 0.9 | 0.00 | 0.00 | 0.00 | 33 | 1012.2 |
| 20260508154533 | 58 | 350 | 0.0 | 0.9 | 0.00 | 0.00 | 0.00 | 36 | 1012.4 |
| 20260508153034 | 58 | 214 | 0.0 | 5.2 | 0.00 | 0.00 | 0.00 | 34 | 1012.4 |
| 20260508151531 | 59 | 290 | 0.9 | 8.7 | 0.00 | 0.00 | 0.00 | 34 | 1012.4 |
| 20260508150030 | 57 | 275 | 0.0 | 6.1 | 0.00 | 0.00 | 0.00 | 37 | 1012.4 |
| 20260508144529 | 57 | 26 | 0.0 | 0.9 | 0.00 | 0.00 | 0.00 | 38 | 1012.5 |
| 20260508143028 | 57 | 248 | 0.0 | 2.6 | 0.00 | 0.00 | 0.00 | 35 | 1012.6 |
| 20260508141527 | 57 | 355 | 0.0 | 5.2 | 0.00 | 0.00 | 0.00 | 38 | 1012.7 |
| 20260508140027 | 57 | 334 | 0.0 | 3.5 | 0.00 | 0.00 | 0.00 | 37 | 1012.8 |
| 20260508134524 | 57 | 43 | 0.0 | 5.2 | 0.00 | 0.00 | 0.00 | 38 | 1013.0 |
| 20260508133021 | 56 | 316 | 0.0 | 0.9 | 0.00 | 0.00 | 0.00 | 39 | 1013.1 |
| 20260508131519 | 55 | 327 | 0.0 | 0.9 | 0.00 | 0.00 | 0.00 | 42 | 1013.3 |
| 20260508130021 | 55 | 4 | 0.0 | 2.6 | 0.00 | 0.00 | 0.00 | 44 | 1013.3 |
| 20260508124515 | 54 | 279 | 0.0 | 1.7 | 0.00 | 0.00 | 0.00 | 47 | 1013.4 |
| 20260508123012 | 52 | 250 | 0.0 | 0.0 | 0.00 | 0.00 | 0.00 | 51 | 1013.4 |
| 20260508121507 | 50 | 20 | 0.0 | 0.0 | 0.00 | 0.00 | 0.00 | 54 | 1013.4 |
| 20260508120010 | 48 | 267 | 0.0 | 0.9 | 0.00 | 0.00 | 0.00 | 59 | 1013.5 |
| 20260508114609 | 46 | 304 | 0.0 | 0.0 | 0.00 | 0.00 | 0.00 | 64 | 1013.4 |
| 20260508113103 | 43 | 4 | 0.0 | 0.0 | 0.00 | 0.00 | 0.00 | 75 | 1013.4 |
| 20260508111606 | 38 | 304 | 0.0 | 0.0 | 0.00 | 0.00 | 0.00 | 83 | 1013.3 |
| 20260508110052 | 36 | 269 | 0.0 | 0.0 | 0.00 | 0.00 | 0.00 | 86 | 1013.3 |
| 20260508104551 | 35 | 269 | 0.0 | 0.0 | 0.00 | 0.00 | 0.00 | 87 | 1013.1 |
| 20260508103049 | 34 | 269 | 0.0 | 0.0 | 0.00 | 0.00 | 0.00 | 88 | 1012.9 |
| 20260508101552 | 33 | 269 | 0.0 | 0.0 | 0.00 | 0.00 | 0.00 | 89 | 1012.9 |
| 20260508100046 | 33 | 269 | 0.0 | 0.0 | 0.00 | 0.00 | 0.00 | 88 | 1012.6 |
| 20260508094547 | 33 | 269 | 0.0 | 0.0 | 0.00 | 0.00 | 0.00 | 88 | 1012.4 |
| 20260508093044 | 32 | 269 | 0.0 | 0.0 | 0.00 | 0.00 | 0.00 | 88 | 1012.5 |
| 20260508091551 | 32 | 269 | 0.0 | 0.0 | 0.00 | 0.00 | 0.00 | 87 | 1012.5 |
| 20260508090043 | 33 | 269 | 0.0 | 0.0 | 0.00 | 0.00 | 0.00 | 87 | 1012.3 |
| 20260508084539 | 33 | 269 | 0.0 | 0.0 | 0.00 | 0.02 | 0.00 | 85 | 1012.3 |
| 20260508083040 | 33 | 269 | 0.0 | 0.0 | 0.00 | 0.02 | 0.00 | 85 | 1012.0 |
| 20260508081544 | 33 | 269 | 0.0 | 0.0 | 0.00 | 0.02 | 0.00 | 84 | 1011.8 |
| 20260508080133 | 34 | 269 | 0.0 | 0.0 | 0.00 | 0.02 | 0.00 | 83 | 1011.7 |
| 20260508074531 | 34 | 269 | 0.0 | 0.0 | 0.00 | 0.02 | 0.00 | 82 | 1011.1 |
| 20260508073032 | 35 | 269 | 0.0 | 0.0 | 0.00 | 0.02 | 0.00 | 82 | 1011.3 |
| 20260508071527 | 36 | 269 | 0.0 | 0.0 | 0.00 | 0.02 | 0.00 | 80 | 1011.3 |
| 20260508070026 | 36 | 269 | 0.0 | 0.0 | 0.00 | 0.02 | 0.00 | 80 | 1011.3 |
| 20260508064527 | 36 | 269 | 0.0 | 0.0 | 0.00 | 0.02 | 0.00 | 80 | 1011.3 |
| 20260508063022 | 37 | 269 | 0.0 | 0.0 | 0.00 | 0.02 | 0.00 | 78 | 1011.2 |
| 20260508061519 | 37 | 269 | 0.0 | 0.0 | 0.00 | 0.02 | 0.00 | 77 | 1011.4 |
| 20260508060016 | 38 | 269 | 0.0 | 0.0 | 0.00 | 0.02 | 0.00 | 76 | 1011.6 |
| 20260508054514 | 39 | 269 | 0.0 | 0.0 | 0.00 | 0.02 | 0.00 | 75 | 1011.7 |
| 20260508053010 | 39 | 269 | 0.0 | 0.0 | 0.00 | 0.02 | 0.00 | 71 | 1011.7 |
| 20260508051516 | 40 | 269 | 0.0 | 0.0 | 0.00 | 0.02 | 0.00 | 69 | 1011.7 |
| 20260508050005 | 40 | 269 | 0.0 | 0.0 | 0.00 | 0.02 | 0.00 | 66 | 1012.0 |
| 20260508044505 | 41 | 269 | 0.0 | 0.0 | 0.00 | 0.02 | 0.00 | 69 | 1012.0 |
| 20260508043101 | 41 | 269 | 0.0 | 0.0 | 0.00 | 0.02 | 0.00 | 66 | 1012.0 |
| 20260508043003 | 42 | 269 | 0.0 | 0.0 | 0.00 | 0.02 | 0.00 | 66 | 1011.9 |
| 20260508041603 | 42 | 269 | 0.0 | 0.0 | 0.00 | 0.02 | 0.00 | 63 | 1012.1 |
| 20260508040056 | 42 | 269 | 0.0 | 0.0 | 0.00 | 0.02 | 0.00 | 65 | 1011.9 |
| 20260508034553 | 44 | 269 | 0.0 | 0.0 | 0.00 | 0.03 | 0.02 | 62 | 1012.0 |
| 20260508033059 | 44 | 269 | 0.0 | 0.0 | 0.00 | 0.03 | 0.02 | 61 | 1012.1 |
| 20260508031552 | 44 | 264 | 0.0 | 0.0 | 0.00 | 0.03 | 0.02 | 66 | 1011.9 |
| 20260508030051 | 44 | 320 | 0.0 | 0.0 | 0.00 | 0.03 | 0.02 | 66 | 1012.0 |
| 20260508024557 | 44 | 320 | 0.0 | 0.0 | 0.00 | 0.03 | 0.02 | 67 | 1011.7 |
| 20260508023048 | 44 | 327 | 0.0 | 0.0 | 0.00 | 0.03 | 0.02 | 64 | 1011.9 |
| 20260508021547 | 44 | 327 | 0.0 | 0.0 | 0.00 | 0.03 | 0.02 | 64 | 1011.7 |
| 20260508020046 | 44 | 327 | 0.0 | 0.0 | 0.00 | 0.03 | 0.02 | 60 | 1011.4 |
| 20260508014543 | 45 | 326 | 0.0 | 0.0 | 0.00 | 0.03 | 0.02 | 59 | 1011.3 |
| 20260508013042 | 46 | 327 | 0.0 | 0.0 | 0.00 | 0.03 | 0.02 | 58 | 1011.2 |
| 20260508011542 | 47 | 327 | 0.0 | 0.0 | 0.00 | 0.03 | 0.02 | 56 | 1010.9 |
| 20260508010042 | 48 | 326 | 0.0 | 0.0 | 0.00 | 0.03 | 0.02 | 51 | 1010.8 |
| 20260508004543 | 49 | 326 | 0.0 | 0.0 | 0.00 | 0.03 | 0.02 | 47 | 1010.7 |
| 20260508003042 | 50 | 326 | 0.0 | 0.0 | 0.00 | 0.03 | 0.02 | 52 | 1010.5 |
| 20260508001540 | 51 | 327 | 0.0 | 0.0 | 0.00 | 0.03 | 0.02 | 46 | 1010.3 |
| 20260508000039 | 53 | 326 | 0.0 | 0.0 | 0.00 | 0.03 | 0.02 | 43 | 1010.1 |
| 20260507234548 | 54 | 51 | 0.0 | 0.0 | 0.00 | 0.08 | 0.02 | 41 | 1010.1 |
| 20260507233039 | 55 | 357 | 0.0 | 0.0 | 0.00 | 0.08 | 0.02 | 37 | 1009.8 |
| 20260507231546 | 56 | 240 | 0.0 | 0.0 | 0.00 | 0.08 | 0.02 | 36 | 1009.8 |
| 20260507230038 | 58 | 298 | 0.0 | 1.7 | 0.00 | 0.08 | 0.02 | 34 | 1009.7 |
| 20260507224539 | 59 | 253 | 0.0 | 4.3 | 0.00 | 0.13 | 0.02 | 35 | 1009.6 |
| 20260507223038 | 59 | 139 | 0.0 | 3.5 | 0.00 | 0.13 | 0.02 | 32 | 1009.3 |
| 20260507221537 | 60 | 224 | 0.0 | 4.3 | 0.00 | 0.13 | 0.02 | 33 | 1009.2 |
| 20260507220036 | 61 | 304 | 0.0 | 1.7 | 0.00 | 0.13 | 0.02 | 31 | 1009.1 |
| 20260507214536 | 61 | 312 | 0.0 | 4.3 | 0.00 | 0.17 | 0.02 | 31 | 1009.0 |
| 20260507213044 | 62 | 262 | 0.0 | 0.0 | 0.00 | 0.17 | 0.02 | 31 | 1009.0 |
| 20260507211537 | 62 | 292 | 0.0 | 0.9 | 0.00 | 0.17 | 0.02 | 32 | 1009.1 |
| 20260507210034 | 62 | 295 | 0.0 | 9.6 | 0.00 | 0.24 | 0.02 | 31 | 1008.9 |
| 20260507204533 | 62 | 348 | 0.0 | 8.7 | 0.00 | 0.24 | 0.02 | 33 | 1008.8 |
| 20260507203035 | 63 | 354 | 0.0 | 6.1 | 0.00 | 0.24 | 0.02 | 32 | 1008.8 |
| 20260507201533 | 63 | 253 | 0.9 | 8.7 | 0.00 | 0.24 | 0.02 | 33 | 1008.9 |
| 20260507200030 | 63 | 195 | 0.0 | 2.6 | 0.00 | 0.28 | 0.02 | 32 | 1008.9 |
| 20260507194531 | 64 | 217 | 0.0 | 5.2 | 0.00 | 0.28 | 0.02 | 32 | 1008.9 |
| 20260507193030 | 64 | 7 | 0.9 | 8.7 | 0.00 | 0.28 | 0.02 | 31 | 1009.0 |
| 20260507191527 | 64 | 155 | 0.0 | 7.8 | 0.00 | 0.28 | 0.02 | 30 | 1009.1 |
| 20260507190027 | 64 | 101 | 0.0 | 9.6 | 0.00 | 0.32 | 0.02 | 32 | 1009.3 |
| 20260507184525 | 65 | 321 | 0.0 | 5.2 | 0.00 | 0.32 | 0.02 | 35 | 1009.4 |
| 20260507183025 | 64 | 131 | 0.0 | 0.9 | 0.00 | 0.32 | 0.02 | 30 | 1009.4 |
| 20260507181523 | 64 | 255 | 0.0 | 6.1 | 0.00 | 0.32 | 0.02 | 31 | 1009.5 |